Location: Newark
(44.6028°N, 124.0883°W)
Time: 08:55:00
(UTC+00:00)

Vanguard 1 Rocket - Visible Passes

Search period start: 20 October 2019 00:00
Search period end: 30 October 2019 00:00
Orbit: 650 x 4226 km, 34.3° (Epoch: 19 October)

Date Brightness Start Highest point End Pass type
(mag) Time Alt. Az. Time Alt. Az. Time Alt. Az.
20 Oct 11.7 02:05:34 10° W 02:24:13 27° SW 02:40:24 10° S visible
21 Oct 12.0 03:32:20 10° WSW 03:37:43 11° WSW 03:42:50 10° SW visible
22 Oct 11.9 02:09:19 10° W 02:25:33 22° SW 02:40:21 10° S visible
24 Oct 12.1 02:14:08 10° W 02:26:54 16° SW 02:39:03 10° SSW visible
26 Oct 12.3 02:21:52 10° WSW 02:28:18 11° SW 02:34:39 10° SW visible
29 Oct 10.7 14:11:35 10° SSE 14:14:41 12° SE 14:18:24 10° ESE visible
